| time (UTC) | temp C | wind direction | speed KPH | gust KPH | rain 1hr cm | rain 24hr cm | rain mn cm | humidity % | barometer mb |
| 20260901030421 | 22 | 184 | 3.2 | 11.3 | 0.00 | 0.03 | 0.03 | 85 | 1014.2 |
| 20260901025422 | 22 | 219 | 3.2 | 8.0 | 0.00 | 0.03 | 0.03 | 84 | 1014.2 |
| 20260901024422 | 22 | 215 | 3.2 | 11.3 | 0.00 | 0.03 | 0.03 | 85 | 1014.2 |
| 20260901023425 | 22 | 201 | 3.2 | 8.0 | 0.00 | 0.03 | 0.03 | 85 | 1014.1 |
| 20260901022417 | 22 | 195 | 3.2 | 8.0 | 0.00 | 0.03 | 0.03 | 85 | 1014.2 |
| 20260901021417 | 22 | 187 | 3.2 | 11.3 | 0.00 | 0.03 | 0.03 | 85 | 1014.2 |
| 20260901020413 | 22 | 194 | 6.4 | 14.5 | 0.00 | 0.03 | 0.03 | 86 | 1014.3 |
| 20260901015413 | 22 | 191 | 6.4 | 14.5 | 0.00 | 0.03 | 0.03 | 87 | 1014.4 |
| 20260901014413 | 22 | 181 | 6.4 | 17.7 | 0.00 | 0.03 | 0.03 | 87 | 1014.4 |
| 20260901013414 | 22 | 164 | 6.4 | 14.5 | 0.00 | 0.03 | 0.03 | 88 | 1014.1 |
| 20260901012417 | 22 | 182 | 3.2 | 11.3 | 0.00 | 0.03 | 0.03 | 88 | 1014.2 |
| 20260901011409 | 22 | 194 | 3.2 | 11.3 | 0.00 | 0.03 | 0.03 | 88 | 1014.0 |
| 20260901010411 | 22 | 209 | 3.2 | 8.0 | 0.00 | 0.03 | 0.03 | 88 | 1013.9 |
| 20260901005409 | 22 | 198 | 0.0 | 8.0 | 0.00 | 0.03 | 0.03 | 88 | 1013.7 |
| 20260901004412 | 22 | 202 | 0.0 | 6.4 | 0.00 | 0.03 | 0.03 | 87 | 1013.6 |
| 20260901003411 | 23 | 174 | 3.2 | 8.0 | 0.00 | 0.03 | 0.03 | 87 | 1013.4 |
| 20260901002409 | 23 | 174 | 3.2 | 11.3 | 0.00 | 0.03 | 0.03 | 87 | 1013.4 |
| 20260901001408 | 23 | 168 | 3.2 | 8.0 | 0.00 | 0.03 | 0.03 | 87 | 1013.4 |
| 20260901000413 | 23 | 174 | 3.2 | 8.0 | 0.00 | 0.03 | 0.03 | 86 | 1013.6 |
| 20260831235412 | 23 | 157 | 3.2 | 8.0 | 0.00 | 0.03 | 0.03 | 86 | 1013.6 |
| 20260831234417 | 23 | 175 | 3.2 | 8.0 | 0.00 | 0.03 | 0.03 | 86 | 1013.6 |
| 20260831233404 | 23 | 146 | 3.2 | 11.3 | 0.00 | 0.03 | 0.03 | 86 | 1013.7 |
| 20260831232405 | 23 | 162 | 6.4 | 11.3 | 0.00 | 0.03 | 0.03 | 87 | 1013.7 |
| 20260831231405 | 23 | 200 | 6.4 | 14.5 | 0.00 | 0.03 | 0.03 | 87 | 1013.9 |
| 20260831230404 | 23 | 209 | 3.2 | 8.0 | 0.00 | 0.03 | 0.03 | 87 | 1013.9 |
| 20260831225403 | 23 | 239 | 3.2 | 8.0 | 0.00 | 0.03 | 0.03 | 87 | 1014.1 |
| 20260831224402 | 23 | 225 | 6.4 | 11.3 | 0.00 | 0.03 | 0.03 | 87 | 1014.2 |
| 20260831223403 | 23 | 183 | 6.4 | 17.7 | 0.00 | 0.03 | 0.03 | 88 | 1014.4 |
| 20260831222402 | 23 | 229 | 6.4 | 17.7 | 0.00 | 0.03 | 0.03 | 88 | 1014.5 |
| 20260831221404 | 23 | 192 | 3.2 | 14.5 | 0.00 | 0.03 | 0.03 | 89 | 1014.6 |
| 20260831220359 | 23 | 161 | 6.4 | 14.5 | 0.00 | 0.03 | 0.03 | 89 | 1014.7 |
| 20260831215357 | 23 | 172 | 3.2 | 14.5 | 0.00 | 0.03 | 0.03 | 89 | 1015.0 |
| 20260831214358 | 23 | 184 | 6.4 | 14.5 | 0.00 | 0.03 | 0.03 | 89 | 1014.5 |
| 20260831213355 | 23 | 159 | 6.4 | 11.3 | 0.00 | 0.03 | 0.03 | 90 | 1014.6 |
| 20260831212355 | 23 | 159 | 6.4 | 14.5 | 0.00 | 0.03 | 0.03 | 90 | 1014.7 |
| 20260831211356 | 23 | 185 | 3.2 | 11.3 | 0.00 | 0.03 | 0.03 | 90 | 1015.1 |
| 20260831210356 | 23 | 161 | 6.4 | 14.5 | 0.00 | 0.03 | 0.03 | 90 | 1014.9 |
| 20260831205354 | 23 | 191 | 6.4 | 11.3 | 0.00 | 0.03 | 0.03 | 90 | 1014.8 |
| 20260831204407 | 23 | 166 | 6.4 | 17.7 | 0.00 | 0.03 | 0.03 | 90 | 1014.9 |
| 20260831203356 | 23 | 169 | 6.4 | 14.5 | 0.00 | 0.03 | 0.03 | 90 | 1015.1 |
| 20260831202353 | 22 | 139 | 6.4 | 14.5 | 0.00 | 0.03 | 0.03 | 91 | 1015.1 |
| 20260831201355 | 22 | 138 | 6.4 | 11.3 | 0.00 | 0.03 | 0.03 | 91 | 1015.5 |
| 20260831200354 | 22 | 130 | 3.2 | 11.3 | 0.00 | 0.03 | 0.03 | 92 | 1015.5 |
| 20260831195354 | 22 | 142 | 3.2 | 11.3 | 0.03 | 0.03 | 0.03 | 92 | 1015.7 |
| 20260831194352 | 22 | 55 | 0.0 | 8.0 | 0.03 | 0.03 | 0.03 | 93 | 1015.8 |
| 20260831193356 | 22 | 50 | 0.0 | 6.4 | 0.03 | 0.03 | 0.03 | 93 | 1016.1 |
| 20260831192353 | 22 | 42 | 0.0 | 6.4 | 0.03 | 0.03 | 0.03 | 92 | 1016.4 |
| 20260831191351 | 22 | 41 | 0.0 | 8.0 | 0.03 | 0.03 | 0.03 | 92 | 1016.7 |
| 20260831190352 | 22 | 40 | 0.0 | 6.4 | 0.03 | 0.03 | 0.03 | 91 | 1016.5 |
| 20260831185351 | 22 | 31 | 0.0 | 0.0 | 0.00 | 0.00 | 0.00 | 91 | 1016.6 |
| 20260831184352 | 22 | 19 | 0.0 | 8.0 | 0.00 | 0.00 | 0.00 | 91 | 1016.7 |
| 20260831183351 | 23 | 19 | 3.2 | 8.0 | 0.00 | 0.00 | 0.00 | 90 | 1016.9 |
| 20260831182352 | 23 | 0 | 0.0 | 3.2 | 0.00 | 0.00 | 0.00 | 90 | 1017.0 |
| 20260831181353 | 22 | 146 | 0.0 | 3.2 | 0.00 | 0.00 | 0.00 | 89 | 1016.1 |
| 20260831180348 | 22 | 146 | 3.2 | 8.0 | 0.00 | 0.00 | 0.00 | 89 | 1015.9 |
| 20260831175350 | 22 | 157 | 3.2 | 8.0 | 0.00 | 0.00 | 0.00 | 89 | 1015.9 |
| 20260831174350 | 22 | 185 | 3.2 | 8.0 | 0.00 | 0.00 | 0.00 | 91 | 1016.0 |
| 20260831173350 | 22 | 160 | 0.0 | 6.4 | 0.00 | 0.00 | 0.00 | 90 | 1016.3 |
| 20260831172350 | 22 | 315 | 0.0 | 0.0 | 0.00 | 0.00 | 0.00 | 88 | 1016.2 |
| 20260831171350 | 22 | 315 | 0.0 | 0.0 | 0.00 | 0.00 | 0.00 | 88 | 1016.5 |
| 20260831170346 | 23 | 315 | 0.0 | 3.2 | 0.00 | 0.03 | 0.00 | 87 | 1016.5 |
| 20260831165347 | 23 | 315 | 0.0 | 0.0 | 0.00 | 0.03 | 0.00 | 85 | 1016.3 |
| 20260831164345 | 23 | 315 | 0.0 | 0.0 | 0.00 | 0.03 | 0.00 | 85 | 1016.6 |
| 20260831163345 | 23 | 315 | 0.0 | 8.0 | 0.00 | 0.05 | 0.00 | 84 | 1017.3 |
| 20260831162344 | 23 | 315 | 3.2 | 8.0 | 0.00 | 0.08 | 0.00 | 83 | 1017.9 |
| 20260831161342 | 23 | 315 | 3.2 | 11.3 | 0.00 | 0.18 | 0.00 | 84 | 1018.0 |
| 20260831160344 | 23 | 321 | 3.2 | 11.3 | 0.00 | 0.38 | 0.00 | 84 | 1018.0 |
| 20260831155342 | 23 | 322 | 0.0 | 8.0 | 0.00 | 0.46 | 0.00 | 85 | 1017.8 |
| 20260831154339 | 23 | 318 | 0.0 | 6.4 | 0.00 | 0.51 | 0.00 | 87 | 1017.5 |
| 20260831153340 | 22 | 178 | 0.0 | 3.2 | 0.00 | 0.58 | 0.00 | 88 | 1017.4 |
| 20260831152340 | 22 | 257 | 0.0 | 6.4 | 0.00 | 0.64 | 0.00 | 89 | 1017.3 |
| 20260831151340 | 22 | 177 | 0.0 | 3.2 | 0.00 | 0.66 | 0.00 | 90 | 1017.2 |
| 20260831150336 | 22 | 177 | 3.2 | 11.3 | 0.00 | 0.74 | 0.00 | 91 | 1017.0 |
| 20260831145343 | 22 | 181 | 0.0 | 6.4 | 0.00 | 0.76 | 0.00 | 92 | 1016.9 |
| 20260831144334 | 22 | 226 | 0.0 | 3.2 | 0.00 | 0.81 | 0.00 | 92 | 1016.7 |
| 20260831143332 | 22 | 211 | 0.0 | 8.0 | 0.00 | 0.86 | 0.00 | 93 | 1016.5 |
| 20260831142332 | 21 | 192 | 0.0 | 6.4 | 0.00 | 0.91 | 0.00 | 93 | 1016.5 |
| 20260831141333 | 21 | 192 | 0.0 | 6.4 | 0.00 | 1.02 | 0.00 | 93 | 1016.6 |
| 20260831140334 | 21 | 148 | 0.0 | 0.0 | 0.00 | 1.12 | 0.00 | 93 | 1016.6 |
| 20260831135330 | 21 | 198 | 0.0 | 0.0 | 0.00 | 1.27 | 0.00 | 93 | 1016.5 |
| 20260831134333 | 21 | 198 | 0.0 | 0.0 | 0.00 | 1.40 | 0.00 | 93 | 1016.5 |
| 20260831133330 | 21 | 198 | 0.0 | 0.0 | 0.00 | 1.52 | 0.00 | 93 | 1016.3 |
| 20260831132331 | 21 | 198 | 0.0 | 0.0 | 0.00 | 1.68 | 0.00 | 93 | 1016.4 |
| 20260831131326 | 21 | 198 | 0.0 | 0.0 | 0.00 | 1.85 | 0.00 | 93 | 1016.5 |
| 20260831130327 | 21 | 198 | 0.0 | 0.0 | 0.00 | 1.98 | 0.00 | 93 | 1016.3 |
| 20260831125326 | 21 | 192 | 0.0 | 3.2 | 0.00 | 2.08 | 0.00 | 93 | 1016.1 |
| 20260831124326 | 21 | 188 | 0.0 | 6.4 | 0.00 | 2.13 | 0.00 | 93 | 1016.2 |
| 20260831123325 | 20 | 180 | 0.0 | 0.0 | 0.00 | 2.21 | 0.00 | 93 | 1016.2 |
| 20260831122326 | 20 | 180 | 0.0 | 0.0 | 0.00 | 2.29 | 0.00 | 93 | 1016.2 |
| 20260831121325 | 20 | 180 | 0.0 | 0.0 | 0.00 | 2.36 | 0.00 | 93 | 1016.2 |
| 20260831120326 | 20 | 180 | 0.0 | 0.0 | 0.00 | 2.41 | 0.00 | 93 | 1016.2 |
| 20260831115326 | 20 | 180 | 0.0 | 0.0 | 0.00 | 2.44 | 0.00 | 92 | 1016.2 |
| 20260831114323 | 20 | 180 | 0.0 | 0.0 | 0.00 | 2.44 | 0.00 | 92 | 1016.3 |
| 20260831113322 | 20 | 180 | 0.0 | 0.0 | 0.00 | 2.44 | 0.00 | 92 | 1016.4 |
| 20260831112322 | 20 | 180 | 0.0 | 0.0 | 0.00 | 2.46 | 0.00 | 92 | 1016.4 |
| 20260831111322 | 20 | 180 | 0.0 | 0.0 | 0.00 | 2.46 | 0.00 | 92 | 1016.4 |
| 20260831110323 | 20 | 180 | 0.0 | 0.0 | 0.00 | 2.46 | 0.00 | 92 | 1016.5 |
| 20260831105321 | 20 | 180 | 0.0 | 0.0 | 0.00 | 2.46 | 0.00 | 92 | 1016.4 |
| 20260831104324 | 20 | 180 | 0.0 | 0.0 | 0.00 | 2.46 | 0.00 | 92 | 1016.3 |
| 20260831103325 | 20 | 180 | 0.0 | 0.0 | 0.00 | 2.46 | 0.00 | 92 | 1016.3 |
| 20260831102323 | 20 | 180 | 0.0 | 0.0 | 0.00 | 2.46 | 0.00 | 92 | 1016.2 |
| 20260831101326 | 20 | 180 | 0.0 | 0.0 | 0.00 | 2.46 | 0.00 | 92 | 1016.2 |
| 20260831100323 | 20 | 180 | 0.0 | 3.2 | 0.00 | 2.46 | 0.00 | 92 | 1016.2 |
| 20260831095320 | 20 | 180 | 0.0 | 0.0 | 0.00 | 2.46 | 0.00 | 92 | 1016.1 |
| 20260831094321 | 20 | 180 | 0.0 | 0.0 | 0.00 | 2.49 | 0.00 | 92 | 1016.0 |
| 20260831093315 | 20 | 180 | 0.0 | 0.0 | 0.00 | 2.51 | 0.00 | 92 | 1016.2 |
| 20260831092316 | 20 | 180 | 0.0 | 0.0 | 0.00 | 2.51 | 0.00 | 92 | 1016.1 |
| 20260831091316 | 20 | 180 | 0.0 | 0.0 | 0.00 | 2.51 | 0.00 | 92 | 1016.2 |
| 20260831090316 | 20 | 180 | 0.0 | 3.2 | 0.00 | 2.51 | 0.00 | 92 | 1016.2 |
| 20260831085317 | 20 | 180 | 0.0 | 6.4 | 0.00 | 2.51 | 0.00 | 91 | 1016.2 |
| 20260831084314 | 20 | 184 | 0.0 | 6.4 | 0.00 | 2.54 | 0.00 | 91 | 1016.1 |
| 20260831083319 | 20 | 180 | 0.0 | 3.2 | 0.00 | 2.57 | 0.00 | 91 | 1016.2 |
| 20260831082316 | 20 | 180 | 0.0 | 0.0 | 0.00 | 2.57 | 0.00 | 90 | 1015.9 |
| 20260831081318 | 20 | 180 | 0.0 | 0.0 | 0.00 | 2.57 | 0.00 | 90 | 1015.9 |
| 20260831080313 | 20 | 180 | 0.0 | 0.0 | 0.00 | 2.57 | 0.00 | 90 | 1015.9 |
| 20260831075315 | 20 | 180 | 0.0 | 0.0 | 0.00 | 2.57 | 0.00 | 90 | 1016.1 |
| 20260831074313 | 20 | 180 | 0.0 | 0.0 | 0.00 | 2.57 | 0.00 | 90 | 1016.0 |
| 20260831073323 | 20 | 180 | 0.0 | 0.0 | 0.00 | 2.57 | 0.00 | 90 | 1016.1 |
| 20260831072319 | 20 | 180 | 0.0 | 3.2 | 0.00 | 2.57 | 0.00 | 89 | 1016.1 |
| 20260831071312 | 21 | 180 | 0.0 | 3.2 | 0.00 | 2.57 | 0.00 | 89 | 1016.1 |
| 20260831070312 | 21 | 180 | 0.0 | 0.0 | 0.00 | 2.57 | 0.00 | 89 | 1016.3 |
| 20260831065310 | 21 | 180 | 0.0 | 0.0 | 0.00 | 2.57 | 0.00 | 89 | 1016.4 |
| 20260831064809 | 21 | 180 | 0.0 | 0.0 | 0.00 | 2.57 | 0.00 | 89 | 1016.5 |
| 20260831063308 | 21 | 180 | 0.0 | 3.2 | 0.00 | 2.57 | 0.00 | 89 | 1016.5 |
| 20260831062308 | 21 | 180 | 0.0 | 3.2 | 0.00 | 2.57 | 0.00 | 89 | 1016.5 |
| 20260831061311 | 21 | 180 | 0.0 | 3.2 | 0.00 | 2.57 | 0.00 | 89 | 1016.5 |
| 20260831060311 | 21 | 180 | 0.0 | 0.0 | 0.00 | 2.57 | 0.00 | 89 | 1016.6 |
| 20260831055308 | 21 | 180 | 0.0 | 3.2 | 0.00 | 2.57 | 0.00 | 89 | 1016.6 |
| 20260831054309 | 21 | 180 | 0.0 | 8.0 | 0.00 | 2.57 | 0.00 | 89 | 1016.6 |
| 20260831053311 | 21 | 185 | 0.0 | 6.4 | 0.00 | 2.57 | 0.00 | 89 | 1016.7 |
| 20260831052307 | 21 | 184 | 0.0 | 11.3 | 0.00 | 2.57 | 0.00 | 90 | 1016.6 |
| 20260831051308 | 21 | 188 | 3.2 | 8.0 | 0.00 | 2.57 | 0.00 | 90 | 1016.7 |
| 20260831050307 | 21 | 188 | 3.2 | 6.4 | 0.00 | 2.57 | 0.00 | 90 | 1016.8 |
| 20260831045306 | 21 | 188 | 3.2 | 11.3 | 0.00 | 2.57 | 0.00 | 90 | 1016.8 |
| 20260831044309 | 21 | 184 | 3.2 | 11.3 | 0.00 | 2.57 | 0.00 | 91 | 1016.8 |
| 20260831043306 | 21 | 182 | 6.4 | 14.5 | 0.00 | 2.57 | 0.00 | 91 | 1016.8 |
| 20260831042309 | 21 | 163 | 6.4 | 17.7 | 0.00 | 2.57 | 0.00 | 91 | 1016.7 |
| 20260831041309 | 21 | 175 | 3.2 | 11.3 | 0.00 | 2.57 | 0.00 | 91 | 1016.7 |
| 20260831040308 | 21 | 169 | 6.4 | 17.7 | 0.00 | 2.57 | 0.00 | 91 | 1016.8 |
| 20260831035307 | 20 | 188 | 6.4 | 14.5 | 0.00 | 2.57 | 2.57 | 92 | 1016.9 |
| 20260831034310 | 20 | 188 | 6.4 | 19.3 | 0.00 | 2.57 | 2.57 | 92 | 1016.9 |
| 20260831033306 | 20 | 193 | 3.2 | 11.3 | 0.00 | 2.57 | 2.57 | 91 | 1016.9 |
| 20260831032310 | 20 | 198 | 3.2 | 8.0 | 0.00 | 2.57 | 2.57 | 92 | 1016.8 |
| 20260831031301 | 20 | 190 | 3.2 | 11.3 | 0.00 | 2.57 | 2.57 | 92 | 1016.8 |